This is the latest recevied weather packets stored in our database for station/object ALTO-WX. If no packets are shown the sender has not sent any weather packets the latest 10 day(s).
| Time | Temp. | Humidity | Pressure | Rain* | Wind** | Luminosity | Snow |
|---|---|---|---|---|---|---|---|
| 1778121048 | 6.67° C | 52% | 983.7 hPa | 0 mm | - | - | - |
| 1778120134 | 6.11° C | 52% | 983.7 hPa | 0 mm | - | - | - |
| 1778119258 | 6.67° C | 52% | 983.7 hPa | 0 mm | - | - | - |
| 1778118334 | 6.67° C | 47% | 983.3 hPa | 0 mm | - | - | - |
| 1778117450 | 7.22° C | 47% | 983.3 hPa | 0 mm | - | - | - |
| 1778116534 | 7.22° C | 47% | 983.3 hPa | 0 mm | - | - | - |
| 1778115660 | 7.78° C | 47% | 983.3 hPa | 0 mm | - | - | - |
| 1778114734 | 7.78° C | 38% | 984.1 hPa | 0 mm | - | - | - |
| 1778113851 | 8.33° C | 40% | 984 hPa | 0 mm | - | - | - |
| 1778112933 | 8.89° C | 40% | 984 hPa | 0 mm | - | - | - |
| 1778112069 | 9.44° C | 40% | 984 hPa | 0 mm | - | - | - |
| 1778111134 | 10° C | 36% | 982.6 hPa | 0 mm | - | - | - |
| 1778110257 | 10° C | 37% | 982.8 hPa | 0 mm | - | - | - |
| 1778109335 | 10° C | 37% | 982.8 hPa | 0 mm | - | - | - |
| 1778108462 | 10.56° C | 37% | 982.8 hPa | 0 mm | - | - | - |
| 1778107534 | 10.56° C | 33% | 983.2 hPa | 0 mm | - | - | - |
| 1778106648 | 10.56° C | 34% | 983.5 hPa | 0 mm | - | - | - |
| 1778105734 | 10.56° C | 34% | 983.5 hPa | 0 mm | - | - | - |
| 1778104868 | 11.11° C | 34% | 983.5 hPa | 0 mm | - | - | - |
| 1778103933 | 11.11° C | 35% | 983.4 hPa | 0 mm | - | - | - |
| 1778103053 | 11.67° C | 33% | 983.5 hPa | 0 mm | - | - | - |
| 1778102133 | 11.67° C | 33% | 983.5 hPa | 0 mm | - | - | - |
| 1778101266 | 11.67° C | 33% | 983.5 hPa | 0 mm | - | - | - |
| 1778100335 | 11.67° C | 33% | 983.2 hPa | 0 mm | - | - | - |
| 1778099454 | 11.67° C | 33% | 982.9 hPa | 0 mm | - | - | - |
* Rain latest hour (hover to see other rain measurements)
** Current wind speed in m/s (hover to see current wind gust speed)